Regional Weather Roundup
Issued by NWS

Home | Current Version | Previous Version | Graphics & Text | Print | Product List | Glossary Off
Versions: 1 2 3 4 5 6 7 8 9 10 11 12 13 14 15 16 17 18 19 20 21 22 23 24 25 26 27 28 29 30 31 32 33 34 35 36 37 38 39 40 41 42 43 44 45 46 47 48 49 50

218
ASUS43 KMKX 150910
RWRWI

WISCONSIN REGIONAL WEATHER ROUNDUP
NATIONAL WEATHER SERVICE MILWAUKEE/SULLIVAN WI
300 AM CST FRI DEC 15 2017

NOTE: "FAIR" INDICATES FEW OR NO CLOUDS BELOW 12,000 FEET WITH NO
SIGNIFICANT WEATHER AND/OR OBSTRUCTIONS TO VISIBILITY.

WIZ001-002-006>008-014>016-023>028-151000-
NORTHWEST WISCONSIN

CITY           SKY/WX    TMP DP  RH WIND       PRES   REMARKS
SUPERIOR ARPT  CLOUDY    15   9  75 W7        29.91S WCI   5
ASHLAND        FLURRIES  15   9  76 W6        29.87S WCI   6
HAYWARD        CLOUDY    15   8  73 VRB7      29.86S WCI   5
SIREN          CLOUDY    16  10  77 NW6       29.91S WCI   7
CUMBERLAND     CLOUDY    18  12  79 NW12G18   29.87S WCI   5
RICE LAKE      FLURRIES  19  15  85 CALM      29.89S
CHETEK         CLOUDY    19  15  84 W7        29.88S WCI   9
LADYSMITH      CLOUDY    17  12  79 NW12      29.86S WCI   5
EAU CLAIRE     CLOUDY    20  14  77 W12       29.89S WCI   8
MENOMONIE      CLOUDY    22  14  74 W12       29.91S WCI  10
NEW RICHMOND   CLOUDY    20  13  73 W12       29.92S WCI   8
OSCEOLA        CLOUDY    21  15  77 W8        29.95F WCI  11
$$

WIZ003>005-009-010-017-018-151000-
NORTH CENTRAL WISCONSIN

CITY           SKY/WX    TMP DP  RH WIND       PRES   REMARKS
MANITOWISH WTR LGT SNOW  11   9  90 W8        29.78S WCI  -1
ARBOR VITAE    LGT SNOW  15  12  87 W6        29.77F WCI   7
WOODRUFF       LGT SNOW  15  12  87 W6        29.77F WCI   7
RHINELANDER    FLURRIES  14  10  84 W8        29.78S WCI   3
EAGLE RIVER    LGT SNOW  13   9  83 W7        29.75F WCI   3
LAND O LAKES   LGT SNOW  14  10  86 W5        29.76F WCI   6
PHILLIPS       FLURRIES  14  10  85 NW6       29.80S WCI   5
TOMAHAWK       FLURRIES  15  11  87 W5        29.80S WCI   7
MEDFORD        LGT SNOW  16  13  89 W7        29.81S WCI   6
MERRILL        LGT SNOW  16  13  87 W3        29.82S
$$

WIZ029-030-035-036-043>047-151000-
CENTRAL WISCONSIN

CITY           SKY/WX    TMP DP  RH WIND       PRES   REMARKS
WAUSAU         FLURRIES  17  13  84 W8        29.81F WCI   7
MOSINEE        FLURRIES  18  16  93 W8        29.83F WCI   7
MARSHFIELD     FLURRIES  18  15  88 W9        29.82F WCI   7
STEVENS POINT  LGT SNOW  17  13  84 W7        29.85S WCI   8
WAUPACA        CLOUDY    23  15  71 W8        29.86F WCI  13
WAUTOMA        FLURRIES  20  15  81 W13       29.87F WCI   7
WISC RAPIDS    FLURRIES  19  14  81 W6        29.87F WCI  11
CAMP DOUGLAS   NOT AVBL
$$

WIZ011>013-019>022-031-037>040-048>050-151000-
NORTHEAST WISCONSIN

CITY           SKY/WX    TMP DP  RH WIND       PRES   REMARKS
ANTIGO         LGT SNOW  15  12  89 W8        29.78F WCI   4
SHAWANO        FLURRIES  22  17  82 W7        29.84S WCI  13
OCONTO         CLOUDY    20  16  84 W7        29.84S WCI  11
STURGEON BAY   LGT SNOW  21  16  81 W12       29.82F WCI   9
GREEN BAY      FLURRIES  21  16  81 W12       29.84F WCI   9
MANITOWOC      FLURRIES  21  16  81 W7        29.86F WCI  12
APPLETON       FLURRIES  21  14  73 W12       29.83F WCI   9
CLINTONVILLE   NOT AVBL
OSHKOSH        CLOUDY    22  17  81 W14       29.86F WCI   9
$$

WIZ032>034-041-042-053>061-151000-
SOUTHWEST WISCONSIN

CITY           SKY/WX    TMP DP  RH WIND       PRES   REMARKS
LA CROSSE      CLOUDY    26  16  65 W15       29.92F WCI  14
SPARTA         CLOUDY    22  18  83 W3        29.90F
VIROQUA        CLOUDY    22  19  89 W10       29.89F WCI  11
BOSCOBEL       CLOUDY    26  17  68 W8        29.95F WCI  18
PRAIRIE DU CHI CLOUDY    26  16  67 W10       29.96S WCI  16
PLATTEVILLE    CLOUDY    25  19  78 W12       29.93F WCI  15
$$

WIZ056-057-062-063-064-067-068-151000-
SOUTH CENTRAL WISCONSIN

CITY           SKY/WX    TMP DP  RH WIND       PRES   REMARKS
REEDSBURG      CLOUDY    22  16  78 W10       29.90S WCI  11
BARABOO/DELLS  LGT SNOW  21  16  81 W6        29.89S WCI  13
LONE ROCK      CLOUDY    23  17  78 W8        29.93F WCI  14
MINERAL POINT  CLOUDY    25  23  93 W8        29.91F WCI  16
MADISON        CLOUDY    23  17  78 NW12G22   29.90S WCI  12
MIDDLETON      CLOUDY    24  18  77 W14G20    29.90S WCI  12
WATERTOWN      FLURRIES  24  19  82 W9        29.88F WCI  14
MONROE         CLOUDY    23  18  80 W16G22    29.91S WCI  10
JANESVILLE     CLOUDY    27  19  74 W17G25    29.91F WCI  14
$$

WIZ051-052-058>065-066-070>072-151000-
SOUTHEAST WISCONSIN

CITY           SKY/WX    TMP DP  RH WIND       PRES   REMARKS
MILWAUKEE      FLURRIES  23  16  74 SW10      29.90F WCI  12
WAUKESHA       CLOUDY    21  16  79 SW9       29.89F WCI  11
MILWAUKEE/TIMM CLOUDY    23  14  68 SW7       29.89F WCI  15
RACINE         CLOUDY    24  16  71 SW10      29.92F WCI  14
BURLINGTON     MOCLDY    23  19  83 SW9       29.91S WCI  13
KENOSHA        CLOUDY    24  16  71 SW9       29.91F WCI  14
FOND DU LAC    FLURRIES  23  16  74 W8        29.87S WCI  14
SHEBOYGAN      CLOUDY    21  15  78 SW6       29.86F WCI  13
WEST BEND      FLURRIES  23  18  80 SW6       29.86F WCI  16
JUNEAU         LGT SNOW  22  18  81 W5        29.88F WCI  16
$$

LSZ147-162-151000-
LAKE SUPERIOR

STATION/POSITION TIME  TEMP    WIND        PRES    WAVE
                       AIR SEA DIR/SP/G            HT/PER
                 (UTC) (F)     (DEG/KT/KT) (MB)    (FT/S)
DEVILS ISLAND    0900   17     300/ 18/ 20 1012.0F
SAXON HARBOR     0840   16                 1010.8S
$$

LMZ867-665-643>646-151000-
LAKE MICHIGAN

STATION/POSITION TIME  TEMP    WIND        PRES    WAVE
                       AIR SEA DIR/SP/G            HT/PER
                 (UTC) (F)     (DEG/KT/KT) (MB)    (FT/S)
NORTHPORT PIER   0901   22     290/  5/ 18 1009.1
KEWAUNEE LAKESHO 0848   20     240/  6/  9 1010.0F
SHEBOYGAN LAKESH 0900   23     240/  8/ 11 1012.5F
PORT WASHINGTON  0840   23     230/  5/  9 1013.2F
MILWAUKEE LAKESH 0850   24     220/  9/ 10   N/A
KENOSHA   LAKESH 0900   24     240/  9/ 13 1013.2
$$

TC  - TEMPERATURE IN CELSIUS
VSB - VISIBILITY IN STATUTE MILES
WCI - WIND CHILL INDEX
HX  - HEAT INDEX





USA.gov is the U.S. government's official web portal to all federal, state and local government web resources and services.